Regional Weather Roundup
Issued by NWS

Home | Current Version | Previous Version | Graphics & Text | Print | Product List | Glossary On
Versions: 1 2 3 4 5 6 7 8 9 10 11 12 13 14 15 16 17 18 19 20 21 22 23 24 25 26 27 28 29 30 31 32 33 34 35 36 37 38 39 40 41 42 43 44 45 46 47 48 49 50
000
ASUS43 KLMK 310410
RWRKY
KENTUCKY REGIONAL WEATHER ROUNDUP
NATIONAL WEATHER SERVICE LOUISVILLE KY
1200 AM EDT SUN AUG 31 2014

NOTE "FAIR" INDICATES FEW OR NO CLOUDS BELOW 12,000 FEET
WITH NO SIGNIFICANT WEATHER AND/OR OBSTRUCTIONS TO VISIBILITY.

KYZ001>023-026-027-061>063-070>075-310500-
WESTERN AND SOUTH CENTRAL KENTUCKY

CITY           SKY/WX    TMP DP  RH WIND       PRES   REMARKS
PADUCAH        CLOUDY    75  72  90 S3        30.00R
HENDERSON      CLOUDY    72  68  88 S6        30.03R
OWENSBORO      NOT AVBL
HOPKINSVILLE   CLOUDY    74  74 100 S8        30.04F
BOWLING GREEN  LGT RAIN  73  71  93 SE6       30.06F
GLASGOW        LGT RAIN  71  71 100 SE3       30.08F
$$

KYZ024-025-028>034-038-045-046-053-310500-
NORTH CENTRAL KENTUCKY

CITY           SKY/WX    TMP DP  RH WIND       PRES   REMARKS
LOUISVILLE/SDF LGT RAIN  74  71  91 SE6       30.05R
LOUISVILLE/LOU LGT RAIN  73  71  93 SE3       30.06S
FORT KNOX      CLOUDY    73  73 100 S10       30.05F
$$

KYZ035>037-039>044-047>052-055>060-089>105-310500-
NORTHEAST KENTUCKY

CITY           SKY/WX    TMP DP  RH WIND       PRES   REMARKS
LEXINGTON      LGT RAIN  74  71  91 S8        30.09S
COVINGTON      CLOUDY    71  68  90 S9        30.05S FOG
FRANKFORT      CLOUDY    73  71  93 S5        30.08R FOG
$$

KYZ054-064>069-076>088-106>120-310500-
SOUTHEAST KENTUCKY

CITY           SKY/WX    TMP DP  RH WIND       PRES   REMARKS
JACKSON        RAIN      71  68  90 VRB6      30.15F FOG
LONDON         LGT RAIN  72  69  90 CALM      30.14F
SOMERSET       RAIN      70  70 100 SW6       30.15S
MIDDLESBORO    LGT RAIN  70  70  99 CALM      30.15F
MONTICELLO     CLOUDY    72  70  94 SW8       30.14R FOG
$$




USA.gov is the U.S. government's official web portal to all federal, state and local government web resources and services.